Location: Coffee Ditch
(40.9640°N, 122.7500°W)
Time: 07:42:21
(UTC+00:00)

Cosmos 1602 Rocket - Visible Passes

Search period start: 07 December 2024 00:00
Search period end: 17 December 2024 00:00
Orbit: 599 x 628 km, 82.5° (Epoch: 06 December)

Date Brightness Start Highest point End Pass type
(mag) Time Alt. Az. Time Alt. Az. Time Alt. Az.
07 Dec 6.7 02:13:16 10° NW 02:15:22 13° W 02:17:26 10° WSW visible
07 Dec 5.3 13:04:19 10° SSE 13:08:07 31° E 13:11:57 10° NNE visible
07 Dec 4.8 14:42:41 10° WSW 14:45:55 20° WNW 14:49:10 10° NNW visible
08 Dec 4.1 13:19:18 10° S 13:23:31 58° E 13:27:46 10° NNE visible
09 Dec 4.8 01:04:51 10° NNW 01:09:06 46° W 01:13:20 10° SSW visible
09 Dec 3.3 13:34:42 10° SSW 13:38:58 75° W 13:43:19 10° N visible
10 Dec 6.0 01:20:47 10° NNW 01:24:28 26° W 01:28:09 10° SW visible
10 Dec 6.3 12:14:35 10° ESE 12:17:11 16° E 12:19:48 10° NE visible
10 Dec 3.9 13:50:29 10° SSW 13:54:32 40° WNW 13:58:38 10° N visible
11 Dec 6.6 01:37:14 10° NW 01:39:46 15° W 01:42:17 10° WSW visible
11 Dec 5.4 12:28:48 10° SSE 12:32:28 28° E 12:36:10 10° NNE visible
11 Dec 4.6 14:06:44 10° SW 14:10:11 23° WNW 14:13:40 10° NNW visible
12 Dec6.412:52:20NNE12:52:20NNE12:43:15Svisible
